San Jose, Costa Rica

10:29 PM CST on August 17, 2017 (GMT -0600)
Juan Santamaria International

Weather History for MROC - January, 2012

Change the Weather History Date:

Wednesday, January 4, 2012

  Actual Average Record
Temperature  
Mean Temperature 72 °F -  
Max Temperature 78 °F 80 °F 88 °F (2017)
Min Temperature 66 °F 63 °F 62 °F (2006)
Cooling Degree Days 7    
Growing Degree Days 22 (Base 50)    
Moisture  
Dew Point 57 °F    
Average Humidity 60    
Maximum Humidity 78    
Minimum Humidity 47    
Precipitation  
Precipitation 0.00 in 0.01 in - ()
Sea Level Pressure  
Sea Level Pressure 30.01 in    
Wind  
Wind Speed 13 mph ()    
Max Wind Speed 20 mph    
Max Gust Speed 29 mph    
Visibility 7.4 miles    
Events      
Averages and records for this station are not official NWS values.
T = Trace of Precipitation, MM = Missing Value Source: Averaged Metar Reports

Daily Weather History Graph

Daily Weather History Graph

Search for Another Location

Airport or City:

Trip Planner

Search our weather history database for the weather conditions in past years. The results will help you decide how hot, cold, wet, or windy it might be!

Date:

Astronomy

Jan. 04, 2012 Rise Set
Actual Time 5:54 AM CST 5:28 PM CST
Civil Twilight 5:32 AM CST 5:51 PM CST
Nautical Twilight 5:05 AM CST 6:17 PM CST
Astronomical Twilight 4:39 AM CST 6:43 PM CST
Moon 1:45 PM CST (1/4) 1:50 AM CST (1/4)
Length of Visible Light 12h 19m
Length of Day
11h 33m
Waxing Gibbous, 81% of the Moon is Illuminated
Jan 4
Waxing Gibbous
Jan 9
Full
Jan 16
Last Quarter
Jan 23
New
Jan 30
First Quarter

Hourly Weather History & Observations

Time (CST) Temp. Dew Point Humidity Pressure Visibility Wind Dir Wind Speed Gust Speed Precip Events Conditions
12:00 AM 69 °F 53 °F 47% 29.94 in 12 mi ENE 17.3 mph - -   Partly Cloudy
12:00 AM 68.0 °F 53.6 °F 60% 30.05 in - ENE 17.3 mph 28.8 mph N/A   Clear
1:00 AM 68.0 °F 53.6 °F 60% 30.01 in - East 12.7 mph 24.2 mph N/A   Clear
2:00 AM 68.0 °F 53.6 °F 60% 30.01 in 6.2 mi East 15.0 mph - N/A   Unknown
3:00 AM 68 °F 55 °F 54% 29.87 in 12 mi East 15.0 mph - -   Scattered Clouds
3:00 AM 68.0 °F 55.4 °F 64% 30.00 in - East 15.0 mph - N/A   Clear
4:00 AM 68.0 °F 55.4 °F 64% 30.01 in 6.2 mi East 12.7 mph - N/A   Partly Cloudy
5:00 AM 68.0 °F 55.4 °F 64% 30.02 in 6.2 mi East 17.3 mph - N/A   Partly Cloudy
6:00 AM 69 °F 54 °F 49% 29.93 in 12 mi ENE 18.4 mph - -   Scattered Clouds
6:00 AM 69.8 °F 53.6 °F 56% 30.03 in 6.2 mi ENE 18.4 mph - N/A   Scattered Clouds
7:00 AM 68.0 °F 57.2 °F 68% 30.05 in 6.2 mi East 19.6 mph - N/A   Scattered Clouds
8:00 AM 71.6 °F 57.2 °F 60% 30.07 in 6.2 mi East 13.8 mph - N/A   Scattered Clouds
9:00 AM 73 °F 58 °F 49% 29.96 in 12 mi East 16.1 mph - -   Scattered Clouds
9:00 AM 73.4 °F 57.2 °F 57% 30.08 in 6.2 mi East 16.1 mph - N/A   Mostly Cloudy
10:00 AM 75.2 °F 59.0 °F 57% 30.07 in 6.2 mi East 15.0 mph - N/A   Mostly Cloudy
11:00 AM 77.0 °F 57.2 °F 50% 30.04 in 6.2 mi East 13.8 mph - N/A   Mostly Cloudy
12:00 PM 78.8 °F 57.2 °F 47% 30.02 in 6.2 mi East 17.3 mph - N/A   Mostly Cloudy
1:00 PM 78.8 °F 59.0 °F 51% 29.99 in 6.2 mi East 13.8 mph - N/A   Scattered Clouds
2:00 PM 77.0 °F 57.2 °F 50% 29.97 in 6.2 mi ENE 13.8 mph - N/A   Scattered Clouds
3:00 PM 75 °F 59 °F 47% 29.88 in 9 mi East 10.4 mph - -   Scattered Clouds
3:00 PM 75.2 °F 59.0 °F 57% - 6.2 mi East 10.4 mph - N/A   Scattered Clouds
4:00 PM 73.4 °F 59.0 °F 61% 29.97 in 6.2 mi ENE 10.4 mph - N/A   Mostly Cloudy
5:00 PM 71.6 °F 59.0 °F 64% 29.99 in 6.2 mi ENE 10.4 mph - N/A   Mostly Cloudy
6:00 PM 71.6 °F 59.0 °F 64% 30.02 in 6.2 mi NE 8.1 mph - N/A   Scattered Clouds
7:00 PM 68.0 °F 60.8 °F 78% 30.03 in 6.2 mi ENE 6.9 mph - N/A   Scattered Clouds
8:00 PM 69.8 °F 60.8 °F 73% 30.05 in 6.2 mi East 5.8 mph - N/A   Scattered Clouds
9:00 PM 69 °F 60 °F 66% 29.96 in 12 mi ENE 11.5 mph - -   Scattered Clouds
9:00 PM 69.8 °F 60.8 °F 73% 30.06 in 6.2 mi ENE 11.5 mph - N/A   Scattered Clouds
10:00 PM 69.8 °F 60.8 °F 73% 30.06 in 6.2 mi East 11.5 mph - N/A   Scattered Clouds
11:00 PM 68.0 °F 60.8 °F 78% 30.04 in 6.2 mi ESE 11.5 mph - N/A   Scattered Clouds